ESNQ

Kiruna

Airport
ICAO code
ESNQ
Summary
ICAO Region
EUR
ICAO Territory
Location

Kiruna,

Elevation
1508 ft
Coordinates
67° 49' 19" N , 20° 20' 12" E
KCC
Metar
Observation
ESNQ 062250Z AUTO 22015KT 9999 NCD 03/00 Q1010
Station
Kiruna Airport
Date/Time
2023-02-06 22:50:00
Wind direction
220°
Wind speed
15 kts
Lowest cloud amount
no clouds detected
Temperature
3°C
Dew point
0°C
Humidity
80%
QNH
1010 hPa
Weather condition
n/a

Description

Kiruna Airport is the northernmost airport in Sweden. The airport lies around 10 km from the town centre of Kiruna.

Climatology

Subarctic climate (Köppen climate classification Dfc) - long, usually very cold winters, and short, cool to mild summers.

Runways

Designator Length Width Surface Rops
3/21 2502 45 ASP Yes/Yes

Airport map

Aerial View

Airport accidents

SKYbrary Partners:

Safety knowledge contributed by: